User: anonymous   Login
Location: Hackbridge
(51.3833°N, 0.1500°W)
Time: 07:15:52
(UTC+00:00)
Language:

Cosmos 1844 Rocket - Orbit

View from above orbital plane
View from above orbital plane
View from above satellite
View from above satellite

Ground track
Ground track

The orbit data is extracted from the following two-line orbital elements,

1 17974U 87041B   19349.90098229 -.00000189 +00000-0 -69694-4 0  9991
2 17974 071.0055 148.9249 0011716 080.0082 071.7321 14.17257625685650
Epoch (UTC): 15 December 2019 21:37:24
Eccentricity: 0.0011716
inclination: 71.0055°
perigee height: 826 km
apogee height: 843 km
right ascension of ascending node: 148.9249°
argument of perigee: 80.0082°
revolutions per day: 14.17257625
mean anomaly at epoch: 71.7321°
orbit number at epoch: 68565

The dashed part of the orbit path shows where the satellite is in the earth's shadow,  

DLR